Voltar ao catálogo

ONEWEB-0522

AtivoComunicaçõesPO
NORAD 54140·PAYLOAD·🇬🇧 United Kingdom

Lançado Oct 22, 2022 de Satish Dhawan Space Centre

Loading…

Próximas Passagens (próximas 24 horas)

TLE

AtualizadoSource: CelesTrak SupGP

Época: Sep 15, 2026, 03:27 UTC

1 54140C 22138AD  26258.14391620 -.00002581  00000+0 -64536-2 0  2580
2 54140  87.9121 287.0435 0002067  90.2213 302.6559 13.19732213    18

Acompanhe ONEWEB-0522 em tempo real com AllMySat

Download on the App Store